Probability
1 2 3 3 3 4 5 6 6 4 3 3 3 3 3 3 3 2 1 0 0 0 0 0 0 0 0 0 0 0 0 0 0 0 0 0 0 0 0 0 0 0 0
0 1 2 2 2 3 3 5 5 4 3 3 3 3 3 3 2 1 0 0 0 0 0 0 0 0 0 0 0 0 0 0 0 0 0 0 0 0 0 0 0 0 0
0 0 1 1 1 1 1 2 3 4 3 3 3 2 2 2 1 0 0 0 0 0 0 0 0 0 0 0 0 0 0 0 0 0 0 0 0 0 0 0 0 0 0
0 0 0 0 0 0 0 0 1 2 2 2 1 1 1 1 0 0 0 0 0 0 0 0 0 0 0 0 0 0 0 0 0 0 0 0 0 0 0 0 0 0 0
0 0 0 0 0 0 0 0 0 0 1 1 0 0 0 0 0 0 0 0 0 0 0 0 0 0 0 0 0 0 0 0 0 0 0 0 0 0 0 0 0 0 0
0 0 0 0 0 0 0 0 0 0 0 0 0 0 0 0 0 0 0 0 0 0 0 0 0 0 0 0 0 0 0 0 0 0 0 0 0 0 0 0 0 0 0
0 0 0 0 0 0 0 0 0 0 0 0 0 0 0 0 0 0 0 0 0 0 0 0 0 0 0 0 0 0 0 0 0 0 0 0 0 0 0 0 0 0 0
0 0 0 0 0 0 0 0 0 0 0 0 0 0 0 0 0 0 0 0 0 0 0 0 0 0 0 0 0 0 0 0 0 0 0 0 0 0 0 0 0 0 0
0 0 0 0 0 0 0 0 0 0 0 0 0 0 0 0 0 0 0 0 0 0 0 0 0 0 0 0 0 0 0 0 0 0 0 0 0 0 0 0 0 0 0
0 0 0 0 0 0 0 0 0 0 0 0 0 0 0 0 0 0 0 0 0 0 0 0 0 0 0 0 0 0 0 0 0 0 0 0 0 0 0 0 0 0 0
0 0 0 0 0 0 0 0 0 0 0 0 0 0 0 0 0 0 0 0 0 0 0 0 0 0 0 0 0 0 0 0 0 0 0 0 0 0 0 0 0 0 0
0 0 0 0 0 0 0 0 0 0 0 0 0 0 0 0 0 0 0 0 0 0 0 0 0 0 0 0 0 0 0 0 0 0 0 0 0 0 0 0 0 0 0
0 0 0 0 0 0 0 0 0 0 0 0 0 0 0 0 0 0 0 0 0 0 0 0 0 0 0 0 0 0 0 0 0 0 0 0 0 0 0 0 0 0 0
0 0 0 0 0 0 0 0 0 0 0 0 0 0 0 0 0 0 0 0 0 0 0 0 0 0 0 0 0 0 0 0 0 0 0 0 0 0 0 0 0 0 0
0 0 0 0 0 0 0 0 0 0 0 0 0 0 0 0 0 0 0 0 0 0 0 0 0 0 0 0 0 0 0 0 0 0 0 0 0 0 0 0 0 0 0
0 0 0 0 0 0 0 0 0 0 0 0 0 0 0 0 0 0 0 0 0 0 0 0 0 0 0 0 0 0 0 0 0 0 0 0 0 0 0 0 0 0 0
0 0 0 0 0 0 0 0 0 0 0 0 0 0 0 0 0 0 0 0 0 0 0 0 0 0 0 0 0 0 0 0 0 0 0 0 0 0 0 0 0 0 0
0 0 0 0 0 0 0 0 0 0 0 0 0 0 0 0 0 0 0 0 0 0 0 0 0 0 0 0 0 0 0 0 0 0 0 0 0 0 0 0 0 0 0
0 0 0 0 0 0 0 0 0 0 0 0 0 0 0 0 0 0 0 0 0 0 0 0 0 0 0 0 0 0 0 0 0 0 0 0 0 0 0 0 0 0 0
0 0 0 0 0 0 0 0 0 0 0 0 0 0 0 0 0 0 0 0 0 0 0 0 0 0 0 0 0 0 0 0 0 0 0 0 0 0 0 0 0 0 0
0 0 0 0 0 0 0 0 0 0 0 0 0 0 0 0 0 0 0 0 0 0 0 0 0 0 0 0 0 0 0 0 0 0 0 0 0 0 0 0 0 0 0
0 0 0 0 0 0 0 0 0 0 0 0 0 0 0 0 0 0 0 0 0 0 0 0 0 0 0 0 0 0 0 0 0 0 0 0 0 0 0 0 0 0 0
0 0 0 0 0 0 0 0 0 0 0 0 0 0 0 0 0 0 0 0 0 0 0 0 0 0 0 0 0 0 0 0 0 0 0 0 0 0 0 0 0 0 0
0 0 0 0 0 0 0 0 0 0 0 0 0 0 0 0 0 0 0 0 0 0 0 0 0 0 0 0 0 0 0 0 0 0 0 0 0 0 0 0 0 0 0
0 0 0 0 0 0 0 0 0 0 0 0 0 0 0 0 0 0 0 0 0 0 0 0 0 0 0 0 0 0 0 0 0 0 0 0 0 0 0 0 0 0 0
0 0 0 0 0 0 0 0 0 0 0 0 0 0 0 0 0 0 0 0 0 0 0 0 0 0 0 0 0 0 0 0 0 0 0 0 0 0 0 0 0 0 0
Wind_Speed
1 2 2 2 2 2 3 3 3 3 4 4 4 4 4 3 3 3 2 2 2 1 1 1 1 1 1 1 1 1 2 2 5 6 5 5 6 6 6 6 6 5 7
1 2 2 3 3 3 2 2 3 3 3 3 3 4 4 3 3 3 3 2 2 2 1 1 1 1 1 1 1 2 2 3 4 7 6 5 6 6 6 7 6 6 6
2 3 3 2 2 2 2 2 3 3 3 3 3 3 3 3 3 3 3 2 2 2 1 1 1 1 2 2 2 2 3 3 3 5 6 5 5 5 6 7 7 5 7
2 3 3 2 2 2 2 2 2 3 3 2 2 3 2 3 3 2 2 2 2 1 1 1 1 2 2 2 2 3 3 3 4 4 5 5 5 5 5 6 7 6 7
2 2 2 2 2 2 2 2 3 2 2 2 3 3 2 2 2 2 2 2 2 1 1 1 2 2 3 3 3 3 3 3 3 4 5 5 5 5 6 5 7 7 7
3 2 2 3 2 2 2 3 3 2 2 2 2 3 2 2 2 2 2 2 2 2 2 2 2 2 3 4 6 6 5 4 4 4 4 5 6 6 5 6 6 7 7
2 3 3 2 2 2 2 3 3 2 2 2 2 3 3 2 2 2 1 0 1 2 2 1 1 2 2 2 4 6 6 7 6 4 5 6 6 6 6 6 6 7 7
2 2 2 2 2 2 2 2 2 2 2 2 2 2 2 2 2 1 1 0 1 1 1 1 1 1 2 3 3 3 4 4 5 4 4 5 5 5 5 5 6 7 7
2 2 2 2 2 2 2 1 2 2 2 2 2 2 2 2 2 2 2 0 0 0 1 1 1 1 4 6 3 3 4 4 5 7 8 8 10 10 8 5 5 6 7
1 1 2 1 2 1 1 1 1 2 2 2 1 2 2 2 2 2 3 1 0 1 1 1 2 3 5 5 2 2 4 5 5 6 6 7 5 6 8 4 4 5 6
2 2 2 1 1 1 1 1 1 2 2 2 2 1 2 1 1 2 3 1 0 0 1 1 2 5 5 5 4 2 5 5 4 4 4 4 4 4 4 4 4 4 5
2 2 2 1 1 1 1 1 1 2 2 2 2 1 1 1 1 1 3 3 3 1 1 1 2 5 5 5 4 5 7 6 3 3 3 4 4 4 5 5 6 5 4
1 1 1 1 1 1 1 1 1 2 2 2 2 1 1 1 0 2 3 3 4 2 1 3 4 5 5 3 5 6 5 3 2 3 3 4 4 4 4 5 5 5 6
1 1 1 1 1 1 1 1 1 1 1 1 1 1 1 0 0 1 1 1 2 2 2 3 4 4 4 4 4 3 2 2 2 2 3 3 4 4 4 4 5 5 5
0 0 1 1 1 1 1 1 1 1 2 2 1 1 1 1 0 1 1 1 1 1 2 1 1 2 2 2 2 2 2 2 3 3 3 3 4 4 4 4 4 5 5
1 0 0 1 1 1 1 1 2 1 1 1 1 1 0 0 0 1 1 2 2 3 2 1 1 1 2 2 2 3 3 3 3 3 3 3 4 4 5 5 4 4 5
1 1 1 1 1 1 1 1 1 1 2 1 1 1 1 1 1 0 1 1 2 2 1 1 1 1 2 2 2 2 3 3 3 2 3 3 4 4 4 5 5 5 5
1 1 1 1 1 1 1 0 1 1 0 0 0 0 1 1 1 1 1 1 1 1 1 1 1 1 2 2 2 2 3 3 3 3 3 3 3 4 4 4 5 5 6
1 1 1 1 1 1 1 1 1 1 1 0 0 0 1 1 1 1 2 1 0 0 1 1 1 2 2 2 2 2 2 3 3 3 3 3 3 3 4 4 5 7 6
1 2 1 1 1 1 1 1 1 1 1 0 0 0 0 1 1 1 1 1 0 1 1 1 1 1 2 2 2 2 2 3 3 3 3 3 3 3 4 5 5 5 5
1 1 2 1 1 1 1 1 1 1 1 0 0 0 0 1 1 0 0 0 0 1 1 1 1 1 2 2 2 2 3 3 3 3 3 3 3 3 3 4 4 4 4
1 1 1 2 1 1 1 1 1 1 1 0 0 0 0 1 1 0 0 0 1 1 1 1 1 1 1 2 2 2 2 3 3 3 3 3 3 3 3 3 4 4 4
2 2 2 1 1 2 1 1 1 1 1 0 0 0 0 0 0 0 0 0 0 1 1 1 1 2 2 2 2 2 2 3 3 3 3 3 3 3 3 4 4 5 5
2 2 2 2 1 1 1 1 1 1 1 1 0 0 0 0 0 0 0 0 0 1 1 1 1 2 3 3 2 2 3 3 3 3 3 3 3 3 3 3 4 5 4
1 2 2 2 2 2 1 1 1 1 1 1 0 0 0 0 0 0 0 0 1 1 2 2 2 2 3 4 4 3 5 6 5 3 3 2 3 3 3 3 3 4 4
1 1 1 1 1 1 2 1 1 1 1 0 0 0 0 0 0 0 0 0 1 1 2 2 3 3 4 3 4 5 6 6 5 5 2 1 2 2 2 2 3 3 3
Wind_Direction
125 135 129 129 125 130 143 144 144 144 148 153 161 163 164 169 163 158 165 156 163 178 178 183 265 311 306 292 289 290 289 281 283 296 303 312 315 314 316 311 308 304 310
123 101 101 108 114 116 125 140 146 150 150 155 159 158 161 167 168 163 167 167 175 189 206 210 262 295 285 283 280 280 284 285 287 300 308 314 312 312 314 314 316 317 310
110 106 100 98 108 117 116 117 129 136 141 142 148 153 159 165 162 159 167 174 181 193 203 216 242 250 270 289 292 287 289 298 292 295 302 308 310 320 321 317 315 311 313
98 108 110 105 99 107 114 117 115 125 134 138 143 139 143 148 148 148 158 169 184 197 216 229 244 248 256 275 282 282 291 295 294 295 301 309 312 320 324 321 320 320 316
99 96 96 90 86 94 105 110 106 108 123 136 131 123 121 135 141 141 153 170 183 194 232 243 253 281 305 302 304 299 299 295 302 304 302 310 317 328 324 321 317 318 312
96 97 95 95 94 99 105 110 109 109 107 114 122 123 125 119 123 126 139 180 186 201 225 244 257 260 292 310 318 319 317 308 306 300 301 309 310 313 315 319 321 326 319
99 103 103 104 103 103 109 114 120 123 120 125 134 129 134 132 132 133 93 134 201 213 223 241 281 302 311 288 309 317 316 315 311 299 297 302 307 312 313 315 318 318 305
96 99 104 109 108 100 102 115 125 122 128 130 135 134 133 128 109 102 89 80 205 225 238 234 264 302 313 325 314 314 311 310 309 307 290 296 305 307 307 308 306 308 301
85 97 104 113 117 111 110 118 126 121 113 108 113 124 125 123 106 75 62 169 153 353 342 344 329 306 324 339 335 317 318 319 323 323 320 317 320 326 331 327 324 323 316
58 90 96 105 122 130 135 125 120 121 121 114 104 110 116 122 104 72 43 104 69 13 357 353 344 339 333 341 335 320 319 322 330 331 330 330 327 327 335 329 319 317 314
38 70 78 84 109 118 108 106 126 127 120 113 103 92 95 104 113 77 42 54 64 352 339 336 322 335 340 344 349 330 323 332 330 326 327 333 336 338 340 334 325 313 308
47 63 70 67 76 96 100 89 112 130 125 127 118 108 100 110 66 34 26 24 13 343 306 315 321 334 340 346 348 346 348 350 341 337 340 337 337 337 335 331 326 318 302
55 66 69 61 60 84 118 125 130 134 134 136 134 138 124 105 55 20 18 15 7 3 332 330 342 349 348 345 350 356 358 356 347 343 335 329 328 326 331 332 329 327 319
87 91 94 91 82 83 93 115 132 154 147 147 147 153 139 122 57 44 32 16 8 357 351 345 355 360 356 350 353 351 346 345 343 328 327 325 328 333 340 339 334 335 334
107 91 89 90 92 88 71 75 141 184 173 174 179 176 164 186 267 19 25 352 336 331 356 0 2 358 2 358 351 346 350 351 348 341 337 337 338 339 340 340 335 334 336
160 182 161 130 117 117 111 63 51 100 94 122 147 163 188 147 63 5 347 344 1 19 36 27 1 349 345 347 344 344 345 345 342 344 343 339 336 336 336 337 335 334 336
197 207 193 167 155 158 162 153 117 60 60 82 120 93 62 67 85 50 359 4 34 45 46 24 354 335 338 342 342 337 332 333 336 341 340 336 333 333 334 332 335 337 336
199 209 202 178 166 173 194 185 156 145 129 99 144 152 83 76 81 61 55 60 46 34 20 14 349 336 338 340 335 331 331 333 337 338 337 334 333 331 331 330 332 333 331
201 194 178 157 156 169 185 182 165 162 171 198 133 140 81 66 74 66 75 95 100 7 354 349 337 338 339 334 328 329 327 324 327 331 332 331 329 330 329 326 325 328 331
194 190 181 152 151 168 182 173 165 169 181 196 197 187 117 75 85 66 55 55 35 329 330 326 330 331 328 322 320 324 324 325 327 329 327 327 326 322 321 322 323 325 326
177 180 181 163 173 177 181 181 181 189 190 181 280 274 99 127 130 107 59 37 3 325 326 331 331 326 322 321 317 318 320 319 319 319 318 319 318 317 316 316 318 321 324
175 168 165 164 167 170 171 176 175 173 162 168 293 324 26 98 129 139 135 12 343 318 311 318 312 309 310 317 314 310 311 313 315 315 314 313 313 314 317 320 323 327 330
163 159 160 160 161 174 171 162 166 155 144 154 170 85 114 120 120 130 132 354 332 325 326 319 311 314 320 316 309 300 295 296 296 294 299 305 308 313 316 318 322 328 331
151 156 157 156 154 158 162 169 167 158 160 147 131 122 109 120 121 117 97 350 331 325 325 317 308 304 309 315 312 307 302 301 299 289 289 290 300 306 311 316 319 322 324
135 146 152 157 159 162 162 161 159 148 131 120 117 111 88 94 119 136 276 309 317 318 319 315 305 302 303 311 313 311 314 317 317 313 296 293 300 305 308 313 318 325 330
112 124 132 134 141 147 145 142 137 124 113 96 84 94 86 55 287 269 287 301 312 312 312 308 307 307 308 311 312 317 324 325 327 331 325 305 306 307 314 314 319 329 341